Wind_Speed
51 51 51 50 50 50 50 49 48 48 49 49 49 50 50 51 52 52 51 51 51 51 50 49 49 48 48 48 48 48 49 49 50 50 50 49 48 47 46 45 45 45
51 50 50 50 50 50 49 49 49 49 50 50 50 51 51 52 52 51 51 51 50 49 49 50 50 50 50 51 51 51 51 51 51 51 50 49 48 47 45 44 45 45
50 50 49 50 50 50 50 50 50 50 50 50 50 51 51 51 51 50 49 48 47 47 48 49 49 49 50 50 51 51 51 51 51 50 49 49 48 47 45 44 45 45
49 50 50 50 50 51 51 51 50 50 50 50 50 50 50 49 48 47 47 46 46 46 47 47 48 48 48 48 48 49 49 49 49 48 48 48 47 46 45 44 45 45
49 50 50 50 50 50 50 50 49 49 49 49 49 49 48 47 46 45 46 46 46 46 47 46 46 46 45 46 46 47 47 48 47 47 46 46 45 45 44 45 45 45
49 49 49 49 49 50 49 49 49 49 49 48 48 48 47 46 45 46 46 46 46 47 46 45 44 44 44 45 46 47 47 47 47 46 45 44 44 44 45 45 45 45
49 48 48 49 49 49 50 49 49 49 49 48 48 48 47 46 46 47 47 47 47 47 46 45 44 44 45 46 47 48 48 48 48 46 45 44 44 44 45 45 45 45
47 47 48 49 49 50 50 50 49 49 49 49 49 48 48 47 48 48 48 48 48 47 46 46 46 46 46 46 47 48 48 48 47 46 45 44 44 44 44 45 45 45
47 47 48 49 50 51 51 50 50 50 50 50 49 49 48 49 49 49 48 49 48 48 48 47 47 47 47 47 47 47 47 47 47 46 45 44 44 44 44 44 44 44
47 47 48 49 51 52 51 51 51 51 51 50 49 49 50 51 51 50 50 50 50 49 49 49 49 49 48 48 48 47 46 46 46 46 45 44 44 44 44 44 44 44
47 48 49 50 51 52 52 51 51 51 51 51 51 51 52 52 52 51 51 51 51 51 51 51 51 50 50 50 50 49 48 47 46 46 46 45 45 45 44 44 44 44
47 48 49 50 51 52 52 52 52 52 52 52 53 53 53 53 52 52 52 52 52 53 53 53 53 52 52 52 51 51 50 49 48 47 47 47 46 46 45 44 44 44
48 49 50 51 52 53 53 53 53 53 54 54 54 53 53 53 53 52 53 53 54 54 54 54 54 53 53 53 53 53 52 51 50 49 49 49 48 47 46 45 44 44
48 49 50 52 53 53 54 54 54 54 54 54 54 54 54 54 54 55 55 56 56 56 55 55 54 54 54 54 54 54 54 53 52 51 51 50 49 48 47 46 45 44
49 50 51 52 53 53 54 54 54 54 55 55 55 55 56 56 57 57 57 57 57 57 56 56 55 55 55 55 56 56 56 55 54 54 53 52 51 50 49 48 46 45
52 52 53 53 53 53 54 54 55 55 56 56 57 57 57 57 58 58 58 58 58 57 56 56 56 57 57 56 57 57 58 57 56 56 55 54 53 52 50 49 47 46
55 56 55 55 54 54 55 56 57 57 57 57 57 58 58 58 58 59 58 58 58 58 58 58 58 58 58 58 58 58 59 58 57 57 56 56 54 53 52 50 48 46
57 57 56 55 55 55 56 58 58 58 58 58 58 58 59 59 59 59 59 60 61 61 61 61 60 60 60 60 61 60 60 60 59 57 56 56 55 54 52 51 50 48
55 55 55 54 54 56 57 58 58 58 59 59 59 60 60 60 60 61 62 63 64 64 64 63 63 62 62 62 61 61 61 61 60 58 57 55 54 53 52 52 51 49
52 52 52 52 54 57 58 58 58 59 59 60 61 61 61 61 62 64 65 66 67 67 66 66 65 65 65 63 62 61 61 60 60 60 58 56 54 53 53 52 51 50
51 51 51 52 54 56 56 56 57 58 59 60 61 62 63 64 66 67 68 68 69 69 69 68 68 68 67 65 64 63 62 61 60 60 59 58 56 54 53 52 52 51
52 53 53 55 55 55 56 56 58 59 60 62 63 64 66 67 68 69 70 71 71 71 71 71 71 70 68 67 65 64 63 62 61 60 59 59 58 56 55 54 53 52
53 54 56 57 57 57 58 59 60 61 62 64 65 66 68 69 70 71 71 72 73 73 73 72 72 71 70 68 67 65 64 63 62 60 60 59 58 58 57 56 55 54
54 55 57 57 58 58 59 60 61 62 63 65 66 67 69 70 71 72 73 74 74 74 74 73 73 72 71 70 68 67 65 64 62 61 61 60 59 58 58 58 58 56
55 56 57 57 58 59 60 61 62 63 64 66 67 68 70 71 73 74 75 75 75 75 75 75 74 73 72 71 69 68 66 65 64 63 62 61 60 59 59 59 59 58
57 58 58 59 60 61 62 63 64 65 66 67 69 70 71 73 74 75 76 76 76 77 76 76 75 75 73 72 71 70 68 67 66 65 64 63 62 61 60 60 60 60
Wind_Direction
266 267 269 269 270 270 271 272 272 272 274 275 277 279 281 282 283 284 285 286 287 287 286 285 284 285 286 287 288 289 290 292 293 294 296 298 300 302 303 304 304 305
265 266 267 267 268 269 269 270 271 272 274 275 276 277 279 280 282 284 285 286 287 287 286 284 284 285 285 286 287 288 289 290 291 293 294 296 298 300 302 302 303 304
264 265 265 265 266 267 268 269 271 272 274 275 276 277 278 280 282 283 284 285 285 286 286 285 285 285 286 286 287 288 288 289 290 291 293 295 297 299 300 301 302 303
263 264 264 265 266 267 269 270 271 273 274 275 276 277 279 280 282 282 282 282 283 285 286 286 286 286 286 286 287 288 288 289 290 290 292 293 295 297 299 300 301 302
263 264 265 266 267 268 270 271 272 273 273 275 276 277 279 280 281 281 281 281 282 284 285 286 286 286 286 287 287 288 289 289 290 290 291 292 294 295 297 298 299 301
264 266 266 267 268 269 270 271 272 273 274 276 277 278 279 280 281 282 283 282 282 284 284 285 286 286 287 287 287 288 288 288 289 290 290 291 292 293 295 296 298 300
267 268 268 268 269 270 271 272 272 274 275 276 277 278 279 280 282 284 284 283 283 283 283 284 285 287 287 288 288 287 287 287 288 289 289 289 290 291 293 295 297 298
269 269 269 269 270 270 271 272 273 273 274 276 277 278 278 280 284 285 285 284 284 283 283 284 286 287 288 288 288 287 287 286 287 287 288 288 288 289 291 293 295 297
268 268 269 269 270 270 271 272 273 273 274 276 278 278 279 281 284 285 284 284 284 283 284 285 286 288 288 289 288 287 287 286 286 286 287 287 287 288 289 291 293 295
267 268 269 269 270 271 272 273 274 275 276 277 278 278 280 283 284 284 284 284 283 283 284 285 287 288 288 288 288 287 287 287 287 287 287 287 286 286 287 288 290 293
269 270 270 271 271 272 273 274 275 276 277 278 278 279 281 283 284 284 283 283 283 284 284 285 287 288 288 288 287 287 286 287 288 287 287 287 286 285 286 287 288 290
270 271 271 271 272 272 273 274 275 276 277 278 279 281 282 283 283 283 283 283 284 284 285 286 287 287 287 287 287 286 285 285 286 287 287 286 286 285 285 285 286 288
271 271 271 271 272 273 274 275 276 277 278 280 281 282 282 283 283 283 283 284 285 285 286 286 287 287 286 286 286 286 286 285 284 285 286 285 285 285 284 284 285 285
271 272 272 273 273 274 276 277 278 279 279 280 281 282 282 283 283 283 284 285 286 287 287 287 287 287 286 285 285 286 286 285 284 284 284 285 285 284 283 283 283 284
271 272 273 273 274 276 277 278 278 279 279 280 281 282 283 283 284 285 285 287 288 288 288 288 287 287 286 285 285 286 286 286 284 283 283 284 283 283 282 282 282 282
271 272 272 273 275 276 277 277 277 278 279 280 282 283 283 284 285 286 287 288 289 289 289 289 288 288 287 286 286 286 286 286 285 283 282 282 282 281 281 281 280 280
271 272 273 274 275 275 276 276 277 278 279 281 282 283 283 284 285 287 288 289 290 290 290 290 290 290 290 289 288 287 287 286 285 283 282 281 280 280 280 280 280 279
271 272 273 273 274 274 274 275 277 278 280 281 282 283 283 285 286 287 288 289 290 291 291 291 291 292 292 292 291 290 288 287 285 283 282 280 279 279 279 279 279 278
271 271 272 272 272 272 273 275 277 279 280 281 282 283 284 285 286 287 289 290 291 291 291 292 292 292 293 292 291 290 289 287 286 284 282 280 279 278 277 277 277 277
270 271 272 272 271 272 274 277 279 280 281 281 282 283 285 286 287 288 289 290 291 291 292 292 293 293 293 291 290 289 288 286 285 284 283 281 279 278 277 276 276 275
271 271 272 272 272 274 277 279 280 280 281 282 283 284 285 286 287 289 290 290 291 291 292 293 293 293 292 291 290 289 288 286 284 283 282 282 280 279 277 276 275 275
273 273 274 274 275 277 278 279 280 280 281 282 283 285 286 287 288 289 290 290 291 292 293 293 294 293 292 291 290 289 288 286 284 282 281 281 280 279 278 277 276 274
275 275 275 277 278 279 280 280 280 281 282 283 284 286 287 288 288 289 290 291 291 292 293 293 293 293 293 292 291 289 288 286 284 282 281 279 279 278 277 277 275 274
277 277 278 280 281 281 281 281 282 283 284 284 285 286 287 288 289 289 290 291 292 292 293 293 293 293 292 292 290 289 287 285 284 282 281 279 278 276 276 275 274 274
279 281 282 282 282 282 282 283 284 284 285 286 286 287 288 288 289 290 291 292 292 292 293 293 293 292 292 290 289 288 286 285 283 282 280 279 277 276 274 273 273 272
282 283 283 283 283 283 284 284 285 285 286 286 287 288 288 289 290 290 291 292 292 292 292 292 292 291 291 290 289 288 286 285 283 282 280 279 277 276 274 272 271 270
Height
10674 10674 10675 10675 10675 10675 10675 10675 10675 10675 10674 10674 10674 10673 10673 10672 10672 10671 10671 10671 10670 10669 10669 10668 10667 10666 10665 10664 10663 10662 10661 10659 10657 10656 10654 10653 10652 10651 10649 10648 10646 10644
10669 10669 10670 10670 10670 10670 10670 10670 10670 10669 10669 10669 10669 10669 10668 10667 10667 10666 10665 10665 10664 10663 10662 10662 10661 10661 10660 10659 10657 10656 10655 10653 10652 10650 10648 10647 10646 10645 10644 10643 10641 10639
10664 10664 10665 10665 10665 10665 10665 10665 10664 10665 10664 10664 10664 10664 10663 10663 10662 10661 10660 10660 10659 10658 10657 10656 10655 10655 10654 10653 10651 10650 10649 10647 10646 10645 10643 10641 10641 10640 10638 10637 10635 10633
10658 10659 10659 10659 10659 10659 10659 10659 10659 10659 10659 10659 10659 10658 10658 10657 10657 10656 10655 10655 10654 10653 10652 10651 10650 10649 10648 10647 10645 10644 10643 10641 10640 10639 10637 10636 10635 10634 10633 10632 10630 10628
10653 10653 10653 10654 10653 10653 10654 10654 10654 10654 10654 10654 10653 10653 10652 10652 10652 10651 10650 10650 10649 10648 10647 10646 10644 10643 10642 10641 10640 10638 10637 10635 10634 10633 10632 10630 10629 10629 10628 10627 10625 10623
10648 10648 10648 10648 10648 10648 10648 10648 10648 10648 10649 10648 10648 10648 10647 10647 10646 10645 10645 10644 10644 10643 10641 10640 10639 10638 10637 10635 10634 10633 10631 10629 10628 10627 10626 10625 10624 10623 10622 10622 10620 10618
10644 10644 10643 10643 10643 10643 10643 10643 10643 10643 10643 10643 10643 10642 10642 10641 10641 10640 10639 10638 10638 10637 10636 10634 10633 10632 10631 10630 10628 10626 10625 10624 10622 10621 10621 10619 10618 10617 10617 10616 10615 10612
10639 10638 10638 10637 10637 10637 10637 10638 10638 10638 10638 10638 10638 10637 10637 10636 10636 10635 10633 10632 10631 10630 10629 10628 10627 10626 10625 10624 10622 10621 10619 10618 10617 10616 10615 10614 10613 10612 10611 10611 10609 10607
10633 10632 10632 10632 10631 10631 10632 10633 10633 10633 10633 10633 10632 10632 10631 10631 10630 10629 10628 10626 10625 10624 10623 10622 10621 10620 10619 10618 10617 10615 10613 10612 10611 10610 10609 10608 10607 10606 10605 10605 10604 10602
10627 10627 10626 10626 10626 10626 10626 10627 10627 10627 10627 10627 10626 10626 10625 10624 10623 10622 10621 10620 10619 10618 10617 10616 10615 10613 10612 10611 10610 10609 10607 10606 10605 10604 10603 10603 10602 10600 10599 10599 10598 10596
10621 10621 10621 10620 10620 10620 10620 10620 10620 10620 10620 10620 10619 10619 10619 10618 10617 10616 10615 10613 10612 10611 10610 10609 10608 10607 10605 10604 10603 10602 10601 10600 10598 10597 10596 10596 10595 10595 10594 10593 10592 10590
10616 10616 10615 10615 10614 10614 10614 10614 10614 10613 10613 10613 10612 10612 10612 10611 10610 10609 10608 10607 10606 10604 10603 10602 10601 10600 10598 10597 10595 10595 10594 10593 10592 10591 10589 10589 10588 10588 10587 10586 10585 10584
10611 10610 10609 10609 10608 10608 10607 10607 10607 10607 10606 10606 10606 10605 10605 10604 10603 10602 10601 10600 10599 10598 10596 10595 10594 10593 10591 10590 10588 10587 10586 10586 10585 10584 10582 10581 10581 10581 10580 10580 10579 10577
10605 10604 10603 10602 10601 10601 10601 10601 10600 10600 10599 10599 10599 10598 10598 10597 10596 10595 10594 10593 10591 10590 10589 10588 10587 10585 10584 10583 10581 10579 10579 10578 10577 10577 10575 10574 10574 10573 10572 10572 10572 10571
10599 10598 10596 10596 10595 10595 10595 10594 10594 10593 10593 10592 10592 10591 10591 10590 10589 10587 10586 10585 10584 10583 10581 10580 10579 10578 10577 10576 10574 10572 10571 10571 10570 10569 10568 10567 10566 10565 10565 10565 10565 10564
10592 10591 10590 10590 10589 10589 10588 10587 10587 10587 10586 10585 10585 10584 10583 10582 10581 10580 10578 10577 10576 10575 10574 10572 10571 10570 10569 10568 10567 10564 10563 10562 10561 10561 10560 10559 10558 10557 10557 10557 10558 10557
10585 10585 10584 10584 10583 10582 10581 10580 10580 10580 10579 10579 10578 10577 10576 10575 10573 10572 10571 10569 10568 10566 10565 10564 10563 10561 10560 10559 10558 10557 10555 10553 10552 10552 10551 10550 10550 10549 10548 10549 10549 10550
10579 10579 10578 10577 10576 10575 10574 10573 10573 10573 10573 10572 10571 10569 10568 10567 10566 10564 10563 10561 10560 10558 10557 10555 10554 10552 10551 10550 10549 10547 10546 10544 10543 10543 10542 10541 10541 10541 10540 10540 10540 10541
10573 10572 10572 10571 10570 10568 10567 10567 10567 10567 10566 10565 10563 10562 10561 10560 10558 10557 10555 10553 10552 10550 10548 10547 10545 10544 10542 10541 10540 10538 10536 10535 10534 10533 10533 10532 10532 10532 10532 10531 10531 10531
10567 10566 10565 10564 10562 10561 10561 10561 10561 10560 10559 10557 10556 10555 10553 10552 10550 10549 10547 10545 10543 10541 10540 10538 10536 10535 10533 10531 10530 10529 10527 10526 10524 10523 10523 10523 10523 10523 10523 10523 10522 10522
10561 10560 10559 10557 10556 10556 10556 10555 10554 10553 10551 10550 10548 10547 10545 10544 10542 10540 10538 10537 10534 10532 10530 10528 10526 10525 10523 10522 10520 10519 10518 10516 10515 10514 10513 10513 10513 10513 10514 10514 10513 10513
10554 10553 10552 10551 10550 10550 10550 10549 10547 10546 10544 10542 10541 10539 10537 10535 10534 10532 10530 10527 10525 10523 10521 10519 10516 10514 10513 10511 10510 10509 10507 10507 10506 10505 10504 10503 10503 10503 10503 10504 10504 10504
10547 10547 10545 10545 10544 10544 10543 10542 10540 10538 10537 10535 10533 10531 10529 10527 10525 10523 10521 10518 10516 10514 10511 10509 10507 10504 10502 10501 10499 10498 10497 10496 10496 10495 10494 10494 10494 10493 10493 10493 10493 10494
10541 10540 10539 10539 10538 10537 10535 10534 10532 10531 10529 10527 10525 10523 10521 10518 10516 10514 10512 10509 10506 10504 10502 10499 10497 10495 10493 10491 10489 10488 10487 10486 10485 10485 10484 10484 10484 10484 10483 10482 10482 10483
10535 10534 10533 10532 10530 10529 10527 10526 10525 10523 10521 10519 10517 10515 10513 10510 10507 10505 10502 10499 10497 10494 10491 10489 10487 10485 10483 10481 10479 10478 10476 10475 10475 10474 10474 10473 10472 10473 10473 10472 10472 10473
10528 10527 10526 10525 10523 10522 10520 10519 10517 10515 10514 10511 10509 10507 10504 10502 10499 10496 10493 10490 10487 10484 10482 10479 10477 10474 10472 10470 10468 10467 10465 10464 10463 10462 10462 10461 10461 10461 10461 10461 10461 10462